sat.trackr.live / text

‹ back to catalog

STARLINK-34910

NORAD 66269 · 2025-247E

PAYLOAD ACTIVE UNKNOWN

§ Identity

Operator
Country
US
Launch date
2025-10-31
Launch site
AFWTR
Launch vehicle
Mass (kg)
RCS (m²)

Purposes: comms

External: N2YO · Heavens-Above · Gunter

§ Orbital elements

Epoch: 2026-05-25T03:38:47.131296Z

Period
93.85 min
Inclination
53.1586°
Eccentricity
0.0001437
Mean motion
15.34409721 rev/d
Perigee alt
461.7 km
Apogee alt
463.7 km
Semi-major
6,840.8 km
B*
8.3434e-4
RAAN
195.3030°
Arg perigee
85.1874°
Mean anomaly
274.9292°
Rev number
3,275

§ Raw data

STARLINK-349101 66269U 25247E   26145.15193439  .00027927  00000+0  83434-3 0  99932 66269  53.1586 195.3030 0001437  85.1874 274.9292 15.34409721 32756

JSON: /api/v1/satellites/66269 · /tle

For live sub-satellite position, see the globe view (requires WebGL).

§ Visibility from observer

Set your observer location to see the next 7 days of passes ≥ 10°. The values pass through the URL so the page stays shareable.

No JS? Fill the form by hand. The geolocation button needs JavaScript.